Kuiper-00031

operational
NORAD ID: 63744 Int'l Des: 2025-088 Owner: KUIP Country: US Constellation: kuiper
LEOCIRCULAR

Über Kuiper-00031

Beschreibung wird geladen...

Live-Position

3D-Globus wird geladen...

Nächste Überflüge

Höhenverlauf

Altitude vs Time

uPlot chart will show altitude changes over time

Zweizeiliger Elementsatz

1 63744U 25088W 25353.56835981 .00006829 00000-0 92411-3 0 9995
2 63744 51.9010 90.9069 0003877 200.2043 159.8767 14.79924326 35672
Epoch: 19. Dez. 2025 • Age: 15 hours

Aktueller Status

Höhe 635.9 km
Geschwindigkeit 7.54 km/s
Subsatellitenpunkt 43.47°N, 20.69°W
Startdatum 28. Apr. 2025
Alter 0.6 years
Typ internet

Technische Details

Klassifizierung Payload
Masse 490.00 kg
Trockenmasse 490.00 kg
Gesamtmasse 490.00 kg
Länge 1.80 m
Durchmesser 0.70 m
Spannweite 5.00 m
Form Box + 2 pan
Hersteller KUIP
Bus-Typ Kuiper
Phasenstatus In Orbit
Besitzer/Staat KUIP/US

Große Konstellationen

Loading constellations...